TimeEST,TemperatureF,Dew PointF,Humidity,Sea Level PressureIn,VisibilityMPH,Wind Direction,Wind SpeedMPH,Gust SpeedMPH,PrecipitationIn,Events,Conditions,WindDirDegrees,DateUTC
12:15 AM,3.7,-5.6,65,30.29,10.0,Calm,Calm,-,N/A,,Clear,0,2013-02-10 05:15:00
12:35 AM,1.9,-7.6,64,30.29,10.0,Calm,Calm,-,N/A,,Clear,0,2013-02-10 05:35:00
12:55 AM,-3.8,-9.6,76,30.29,10.0,Calm,Calm,-,N/A,,Clear,0,2013-02-10 05:55:00
1:15 AM,0.1,-6.5,74,30.29,10.0,Calm,Calm,-,N/A,,Clear,0,2013-02-10 06:15:00
1:35 AM,-3.1,-9.6,74,30.29,10.0,SW,3.5,-,N/A,,Clear,220,2013-02-10 06:35:00
1:55 AM,-6.5,-12.8,74,30.29,10.0,Calm,Calm,-,N/A,,Clear,0,2013-02-10 06:55:00
2:15 AM,-3.3,-8.7,78,30.30,10.0,Calm,Calm,-,N/A,,Clear,0,2013-02-10 07:15:00
2:35 AM,-4.7,-10.7,76,30.30,10.0,SW,5.8,-,N/A,,Clear,230,2013-02-10 07:35:00
2:55 AM,-4.4,-9.6,78,30.30,10.0,SW,4.6,-,N/A,,Clear,220,2013-02-10 07:55:00
3:15 AM,-7.6,-12.6,79,30.30,10.0,Calm,Calm,-,N/A,,Clear,0,2013-02-10 08:15:00
3:35 AM,-5.6,-10.5,79,30.31,10.0,SW,4.6,-,N/A,,Clear,230,2013-02-10 08:35:00
3:55 AM,-6.9,-12.1,78,30.31,10.0,SW,3.5,-,N/A,,Clear,220,2013-02-10 08:55:00
4:15 AM,-10.8,-16.8,75,30.31,10.0,Calm,Calm,-,N/A,,Clear,0,2013-02-10 09:15:00
4:35 AM,-7.6,-12.6,79,30.32,7.0,Calm,Calm,-,N/A,,Clear,0,2013-02-10 09:35:00
4:55 AM,-9.2,-14.8,76,30.33,10.0,SW,5.8,-,N/A,,Clear,220,2013-02-10 09:55:00
5:15 AM,-10.1,-15.7,76,30.34,10.0,Calm,Calm,-,N/A,,Clear,0,2013-02-10 10:15:00
5:35 AM,-11.7,-17.9,74,30.35,10.0,Calm,Calm,-,N/A,,Clear,0,2013-02-10 10:35:00
5:55 AM,-11.2,-17.1,75,30.35,10.0,Calm,Calm,-,N/A,,Clear,0,2013-02-10 10:55:00
6:15 AM,-9.8,-15.3,76,30.36,10.0,SW,3.5,-,N/A,,Clear,230,2013-02-10 11:15:00
6:35 AM,-10.7,-16.4,76,30.36,10.0,Calm,Calm,-,N/A,,Clear,0,2013-02-10 11:35:00
6:55 AM,-10.3,-15.9,76,30.37,10.0,SW,4.6,-,N/A,,Clear,220,2013-02-10 11:55:00
7:15 AM,-12.3,-18.2,75,30.38,10.0,Calm,Calm,-,N/A,,Clear,0,2013-02-10 12:15:00
7:35 AM,-11.6,-17.9,74,30.39,10.0,SW,5.8,-,N/A,,Clear,230,2013-02-10 12:35:00
7:55 AM,-10.3,-16.1,76,30.41,10.0,SW,5.8,-,N/A,,Clear,220,2013-02-10 12:55:00
8:15 AM,-8.7,-14.4,76,30.41,10.0,South,3.5,-,N/A,,Clear,190,2013-02-10 13:15:00
8:35 AM,-5.1,-10.8,76,30.41,10.0,SSW,3.5,-,N/A,,Clear,200,2013-02-10 13:35:00
8:55 AM,-2.6,-8.5,76,30.40,10.0,Calm,Calm,-,N/A,,Clear,0,2013-02-10 13:55:00
9:15 AM,-0.0,-6.2,75,30.41,10.0,SW,4.6,-,N/A,,Clear,220,2013-02-10 14:15:00
9:35 AM,2.8,-5.1,70,30.42,10.0,SSW,3.5,-,N/A,,Clear,210,2013-02-10 14:35:00
9:55 AM,5.4,-4.4,64,30.42,10.0,Calm,Calm,-,N/A,,Clear,0,2013-02-10 14:55:00
10:15 AM,6.8,-4.2,61,30.41,10.0,Calm,Calm,-,N/A,,Clear,0,2013-02-10 15:15:00
10:35 AM,8.2,-4.7,56,30.41,10.0,Calm,Calm,-,N/A,,Clear,0,2013-02-10 15:35:00
10:55 AM,11.7,-3.5,51,30.42,10.0,Calm,Calm,-,N/A,,Clear,0,2013-02-10 15:55:00
11:15 AM,14.0,-4.0,45,30.41,10.0,Calm,Calm,-,N/A,,Clear,0,2013-02-10 16:15:00
11:35 AM,16.3,-4.0,41,30.40,10.0,Calm,Calm,-,N/A,,Clear,0,2013-02-10 16:35:00
11:55 AM,16.5,-6.7,35,30.39,10.0,Calm,Calm,-,N/A,,Clear,0,2013-02-10 16:55:00
12:15 PM,17.6,-6.0,35,30.38,10.0,Calm,Calm,-,N/A,,Clear,0,2013-02-10 17:15:00
12:35 PM,18.5,-7.2,32,30.38,10.0,Calm,Calm,-,N/A,,Clear,0,2013-02-10 17:35:00
12:55 PM,19.4,-8.1,29,30.37,10.0,Calm,Calm,-,N/A,,Clear,0,2013-02-10 17:55:00
1:15 PM,19.9,-7.1,30,30.35,10.0,Calm,Calm,-,N/A,,Clear,0,2013-02-10 18:15:00
1:35 PM,21.2,-7.1,29,30.35,10.0,Calm,Calm,-,N/A,,Clear,0,2013-02-10 18:35:00
1:55 PM,21.0,-8.0,28,30.34,10.0,Calm,Calm,-,N/A,,Clear,0,2013-02-10 18:55:00
2:15 PM,21.6,-6.5,29,30.33,10.0,Calm,Calm,-,N/A,,Clear,0,2013-02-10 19:15:00
2:35 PM,21.7,-5.3,30,30.32,10.0,Calm,Calm,-,N/A,,Clear,0,2013-02-10 19:35:00
2:55 PM,22.1,-5.3,30,30.32,10.0,Calm,Calm,-,N/A,,Clear,0,2013-02-10 19:55:00
3:15 PM,22.6,-5.6,29,30.32,10.0,Calm,Calm,-,N/A,,Clear,0,2013-02-10 20:15:00
3:35 PM,22.6,-4.9,30,30.33,10.0,Calm,Calm,-,N/A,,Clear,0,2013-02-10 20:35:00
3:55 PM,23.0,-7.2,26,30.32,10.0,Calm,Calm,-,N/A,,Clear,0,2013-02-10 20:55:00
4:15 PM,23.0,-6.2,28,30.32,10.0,Calm,Calm,-,N/A,,Clear,0,2013-02-10 21:15:00
4:35 PM,22.8,-6.2,28,30.32,10.0,Calm,Calm,-,N/A,,Clear,0,2013-02-10 21:35:00
4:55 PM,22.3,-6.0,29,30.32,10.0,Calm,Calm,-,N/A,,Clear,0,2013-02-10 21:55:00
5:15 PM,20.8,-5.8,31,30.32,10.0,Calm,Calm,-,N/A,,Clear,0,2013-02-10 22:15:00
5:35 PM,18.5,-4.2,37,30.31,10.0,North,3.5,-,N/A,,Clear,360,2013-02-10 22:35:00
5:55 PM,19.4,-5.3,34,30.32,10.0,Calm,Calm,-,N/A,,Clear,0,2013-02-10 22:55:00
6:15 PM,10.6,-4.0,52,30.32,10.0,Calm,Calm,-,N/A,,Clear,0,2013-02-10 23:15:00
6:35 PM,11.3,0.3,61,30.30,10.0,Calm,Calm,-,N/A,,Clear,0,2013-02-10 23:35:00
6:55 PM,18.1,-4.0,38,30.30,10.0,Calm,Calm,-,N/A,,Clear,0,2013-02-10 23:55:00
7:15 PM,16.3,-0.2,48,30.31,10.0,Calm,Calm,-,N/A,,Clear,0,2013-02-11 00:15:00
7:35 PM,11.1,1.4,65,30.30,10.0,Calm,Calm,-,N/A,,Clear,0,2013-02-11 00:35:00
7:55 PM,13.6,0.5,56,30.29,10.0,SSE,4.6,-,N/A,,Clear,160,2013-02-11 00:55:00
8:15 PM,14.9,-0.4,51,30.29,10.0,South,3.5,-,N/A,,Clear,180,2013-02-11 01:15:00
8:35 PM,13.6,1.2,58,30.29,10.0,SSW,5.8,-,N/A,,Clear,200,2013-02-11 01:35:00
8:55 PM,13.6,0.9,57,30.28,10.0,South,3.5,-,N/A,,Clear,190,2013-02-11 01:55:00
9:15 PM,13.8,1.0,57,30.27,10.0,SSW,3.5,-,N/A,,Clear,210,2013-02-11 02:15:00
9:35 PM,11.1,1.4,65,30.27,10.0,Calm,Calm,-,N/A,,Clear,0,2013-02-11 02:35:00
9:55 PM,13.3,2.7,63,30.26,10.0,South,3.5,-,N/A,,Clear,180,2013-02-11 02:55:00
10:15 PM,11.7,1.0,62,30.26,10.0,SSW,5.8,-,N/A,,Clear,210,2013-02-11 03:15:00
10:35 PM,9.9,0.7,66,30.26,10.0,SW,6.9,-,N/A,,Clear,220,2013-02-11 03:35:00
10:55 PM,11.5,1.6,64,30.26,10.0,SSW,6.9,-,N/A,,Clear,210,2013-02-11 03:55:00
11:15 PM,11.7,1.4,63,30.25,10.0,SW,5.8,-,N/A,,Clear,220,2013-02-11 04:15:00
11:35 PM,10.8,1.2,65,30.25,10.0,South,5.8,-,N/A,,Clear,190,2013-02-11 04:35:00
11:55 PM,13.3,0.1,56,30.24,10.0,South,4.6,-,N/A,,Clear,190,2013-02-11 04:55:00